Location: Riverside Cemetery
(38.3047°N, 99.7773°W)
Time: 07:09:40
(UTC+00:00)

NOSS 3-2 (C) - Pass Details

Date: 19 September 2020
Orbit: 795 x 1418 km, 63.4° (Epoch: 02 October)

Event Time Altitude Azimuth Distance (km) Brightness Sun altitude
Rises 03:46:16 0° 325° (NW) 4,054 7.6 -34.9°
Reaches altitude 10° 03:48:52 10° 325° (NW) 3,169 6.9 -35.3°
Enters shadow 03:56:00 76° 297° (WNW) 1,362 4.1 -36.4°
